Vertical_Velocity
3 2 1 0 -0 0 0 -1 -1 -2 -1 -3 -2 -2 0 -1 -0 -0 -2 -0 -2 -4
5 3 2 -1 -3 1 1 -1 -1 -5 -2 -3 2 1 -2 -2 -1 -1 0 2 1 -1
2 1 1 -0 -4 1 -1 -1 -2 -3 -2 -0 -1 -1 -0 -1 -2 -0 2 0 -2 -3
2 -1 2 -1 -3 -1 -2 -2 -4 -1 -0 -0 -1 -1 -3 -2 0 1 -2 -2 -2 -2
-1 1 -1 -2 -4 -3 -2 -0 -1 -1 2 1 -1 -2 -0 -1 -3 -4 -3 -4 -3 -1
1 0 -2 -4 -1 -1 -1 1 0 0 -1 -1 -1 -1 -3 -4 -2 -0 -1 -0 -0 1
-2 -1 -0 -1 -2 0 -1 0 -1 -2 -2 -1 -3 -3 -3 -3 -2 -3 -4 -3 -4 -4
0 0 -1 -1 -1 -1 -1 -0 -1 -1 -2 -3 -4 -2 -2 -3 -3 -3 -6 -6 -5 -5
-0 -1 -1 -1 -2 -2 0 -0 -1 -1 -2 -2 -3 -1 -0 -2 -4 -2 1 2 -5 -5
-2 -2 -3 -2 -0 -0 -1 -0 -0 -1 -1 -1 -2 -2 -1 -2 -4 -4 -2 -1 2 -5
-3 -3 -1 0 -0 -1 -1 -1 -1 -1 -1 0 -1 -1 -2 -3 -4 -4 -4 -5 -5 -5
-2 -0 -1 -1 -1 -1 -1 -1 -1 0 1 1 -0 -1 -1 -1 -2 -3 -8 -7 -8 -5
-2 -1 -0 -1 -1 -1 0 -1 -0 -0 -1 -0 1 1 1 1 0 -4 2 -9 -3 -2
-1 -1 -1 -1 -0 -0 -1 0 -1 -1 1 -1 -1 -0 -1 0 -0 -0 -2 -0 2 -3
Height
5768 5769 5769 5769 5767 5765 5764 5764 5763 5762 5760 5758 5756 5753 5751 5749 5746 5744 5740 5737 5734 5729
5763 5764 5764 5763 5761 5760 5760 5758 5757 5756 5754 5752 5749 5747 5746 5744 5741 5738 5734 5731 5727 5722
5758 5758 5757 5756 5756 5756 5754 5752 5751 5749 5748 5746 5744 5743 5741 5738 5735 5731 5728 5724 5719 5713
5752 5752 5752 5752 5751 5750 5748 5747 5746 5745 5743 5742 5741 5738 5735 5733 5729 5725 5721 5716 5711 5706
5747 5748 5748 5747 5747 5745 5745 5744 5742 5741 5739 5737 5735 5733 5730 5726 5722 5718 5714 5710 5704 5698
5744 5744 5744 5744 5743 5741 5741 5739 5738 5736 5734 5732 5730 5727 5724 5720 5717 5713 5708 5702 5697 5690
5740 5740 5740 5739 5738 5737 5735 5735 5734 5732 5730 5728 5725 5721 5718 5715 5711 5706 5700 5694 5687 5681
5736 5735 5735 5734 5733 5732 5732 5731 5730 5728 5725 5723 5720 5717 5714 5709 5705 5699 5692 5685 5678 5671
5730 5730 5729 5729 5729 5729 5728 5727 5726 5724 5721 5719 5715 5712 5708 5704 5698 5692 5686 5679 5671 5663
5725 5725 5725 5726 5726 5726 5725 5723 5721 5720 5717 5715 5711 5707 5702 5697 5691 5685 5678 5671 5662 5653
5721 5721 5722 5722 5722 5721 5720 5719 5717 5716 5714 5710 5706 5702 5697 5691 5685 5678 5670 5662 5653 5644
5717 5718 5718 5718 5718 5717 5716 5715 5713 5711 5709 5705 5701 5696 5691 5686 5679 5671 5663 5655 5645 5637
5713 5714 5714 5714 5714 5713 5712 5710 5708 5706 5703 5699 5695 5690 5685 5679 5672 5665 5658 5649 5638 5627
5708 5709 5710 5709 5709 5708 5707 5705 5703 5701 5698 5694 5689 5683 5678 5672 5666 5659 5650 5641 5631 5619